THORAD AGENA D DEB

Satellite information

Favourite Embed

Satellite Type and Status

DEBRISIN ORBIT

Key statistics

Satellite THORAD AGENA D DEB at a glance.

Uptime

20242

Days in orbit

Revolutions

≈ 13.5

Per day

Orbit

SSO

Sun Synchronous Orbit

Inclination

100.0

Latest

Satellite identification and parameters

Extended collection of information and parameters for THORAD AGENA D DEB.

Object identification

Identified? True

Debris? True

Object name: THORAD AGENA D DEB

International designator: 1970-025RP

Object number (NORAD): 42509

Object ID (CCSDS): 42509

Country: UNITED STATES OF AMERICA (US)

Current information (Y/N): Y

RCS size: SMALL

Orbital parameters

Period: 106.276 minutes

Inclination: 100.0438 deg

SMA: 7432.205 km

Apoapsis: 1147.71 km

Periapsis: 960.43 km

RAAN: 12.9213 deg

Eccentricy: 0.01259927

Argument of periapsis: 130.8051 deg

Mean anomaly: 230.4094 deg

Mean motion: 13.54959294 rev/day

Mean motion (dot): 0.00001335 rev/day2

B* drag term: 0.0019074742 1/REarth

Two-line elements (TLE)

Creation date: Sept. 7, 2025, 9:49 a.m.

Reference frame: TEME

Reference center: EARTH

Epoch: Sept. 7, 2025, 2:16 a.m. UTC

TLE line 0: 0 THORAD AGENA D DEB

TLE line 1: 1 42509U 70025RP 25250.09473806 .00001335 00000-0 19075-2 0 9991

TLE line 2: 2 42509 100.0438 12.9213 0125993 130.8051 230.4094 13.54959294581561

Live tracking on map

Real-time ground track for satellite THORAD AGENA D DEB.

In-orbit conjunctions

A list of the most updated potential collisions computed for object THORAD AGENA D DEB.

Target Orbit TCA Probability of collision Miss distance Type
SL-8 R/B LEO 2025-03-08 21:12:06 0.0006119805 100.0 (m) ROCKET BODY
SL-8 R/B LEO 2024-11-14 01:00:39 0.0001191247 319.0 (m) ROCKET BODY

Associated space launch

Meteorological research and development satellite

THORAD AGENA D DEB was lifted into orbit during the mission ‘Thorad SLV-2G Agena D | Nimbus 4’, on board a Thorad SLV-2G Agena D space rocket.

The launch took place on April 8, 1970, 8:17 a.m. from Space Launch Complex 2E.

For more information about the launch, click the button.

Launch to space Thorad SLV-2G Agena D | Nimbus 4
Thorad SLV-2G Agena D | Nimbus 4

Agency: N/A

Status: Launch Successful

Launch date: April 8, 1970, 8:17 a.m. UTC

Rocket: Thorad SLV-2G Agena D

Launch pad: Space Launch Complex 2E

Location: Vandenberg SFB, CA, USA

...

Latest news about this satellite

There are no fresh news available about this satellite. Check back as we update our databases every day.


Newsletter sign-up

Weekly statistics, charts and insights to help you stay on top of the space industry.